| time (UTC) | temp F | wind direction | speed MPH | gust MPH | rain 1hr in | rain 24hr in | rain mn in | humidity % | barometer mb |
| 20260505083010 | 62 | 192 | 5.0 | 14.0 | 0.01 | 0.07 | 0.05 | 74 | 1001.5 |
| 20260505081505 | 63 | 130 | 5.0 | 10.0 | 0.01 | 0.07 | 0.05 | 72 | 1001.5 |
| 20260505080009 | 62 | 185 | 3.0 | 20.0 | 0.01 | 0.07 | 0.05 | 74 | 1001.5 |
| 20260505074501 | 60 | 183 | 3.0 | 11.0 | 0.00 | 0.06 | 0.04 | 80 | 1001.8 |
| 20260505073000 | 58 | 140 | 2.0 | 6.0 | 0.00 | 0.06 | 0.04 | 85 | 1001.8 |
| 20260505071614 | 56 | 182 | 1.0 | 4.0 | 0.00 | 0.06 | 0.04 | 88 | 1002.1 |
| 20260505070056 | 56 | 146 | 1.0 | 3.0 | 0.00 | 0.06 | 0.04 | 87 | 1002.3 |
| 20260505064555 | 57 | 147 | 0.0 | 3.0 | 0.00 | 0.06 | 0.04 | 86 | 1002.7 |
| 20260505063055 | 57 | 205 | 3.0 | 8.0 | 0.00 | 0.06 | 0.04 | 86 | 1002.6 |
| 20260505061555 | 57 | 146 | 2.0 | 7.0 | 0.03 | 0.06 | 0.04 | 85 | 1002.9 |
| 20260505060059 | 56 | 165 | 2.0 | 5.0 | 0.04 | 0.06 | 0.04 | 85 | 1003.6 |
| 20260505054551 | 56 | 158 | 2.0 | 9.0 | 0.04 | 0.06 | 0.04 | 84 | 1003.9 |
| 20260505053044 | 58 | 278 | 6.0 | 12.0 | 0.04 | 0.06 | 0.04 | 82 | 1004.2 |
| 20260505051541 | 60 | 254 | 3.0 | 14.0 | 0.01 | 0.03 | 0.01 | 78 | 1003.9 |
| 20260505041542 | 62 | 215 | 0.0 | 9.0 | 0.01 | 0.02 | 0.00 | 72 | 1003.4 |
| 20260505040027 | 62 | 220 | 3.0 | 20.0 | 0.01 | 0.02 | 0.00 | 74 | 1003.2 |
| 20260505034527 | 63 | 138 | 3.0 | 8.0 | 0.00 | 0.01 | 0.01 | 72 | 1003.2 |
| 20260505033028 | 62 | 130 | 5.0 | 10.0 | 0.01 | 0.01 | 0.01 | 72 | 1002.9 |
| 20260505031525 | 61 | 129 | 4.0 | 7.0 | 0.01 | 0.01 | 0.01 | 74 | 1003.1 |
| 20260505030025 | 61 | 140 | 3.0 | 9.0 | 0.01 | 0.01 | 0.01 | 75 | 1003.2 |
| 20260505024522 | 64 | 170 | 5.0 | 12.0 | 0.01 | 0.01 | 0.01 | 66 | 1003.5 |
| 20260505023021 | 66 | 179 | 2.0 | 7.0 | 0.00 | 0.00 | 0.00 | 59 | 1003.6 |
| 20260505021520 | 66 | 159 | 4.0 | 9.0 | 0.00 | 0.00 | 0.00 | 56 | 1003.6 |
| 20260505020030 | 67 | 200 | 3.0 | 11.0 | 0.00 | 0.00 | 0.00 | 53 | 1003.8 |
| 20260505014531 | 65 | 187 | 6.0 | 21.0 | 0.00 | 0.00 | 0.00 | 53 | 1003.6 |
| 20260505013026 | 62 | 198 | 1.0 | 6.0 | 0.00 | 0.00 | 0.00 | 52 | 1003.3 |
| 20260505011524 | 62 | 141 | 0.0 | 4.0 | 0.00 | 0.00 | 0.00 | 52 | 1003.1 |
| 20260505010017 | 62 | 142 | 1.0 | 5.0 | 0.00 | 0.00 | 0.00 | 51 | 1003.4 |
| 20260505004517 | 63 | 185 | 1.0 | 3.0 | 0.00 | 0.00 | 0.00 | 50 | 1003.4 |
| 20260505003023 | 64 | 164 | 1.0 | 6.0 | 0.00 | 0.00 | 0.00 | 47 | 1003.3 |
| 20260505001515 | 64 | 190 | 1.0 | 7.0 | 0.00 | 0.00 | 0.00 | 46 | 1003.3 |
| 20260505000013 | 65 | 263 | 2.0 | 7.0 | 0.00 | 0.00 | 0.00 | 45 | 1003.6 |
| 20260504234512 | 66 | 241 | 1.0 | 7.0 | 0.00 | 0.00 | 0.00 | 44 | 1003.6 |
| 20260504233016 | 67 | 248 | 3.0 | 10.0 | 0.00 | 0.00 | 0.00 | 42 | 1003.7 |
| 20260504231512 | 68 | 234 | 3.0 | 9.0 | 0.00 | 0.00 | 0.00 | 41 | 1003.6 |
| 20260504230012 | 68 | 232 | 4.0 | 13.0 | 0.00 | 0.00 | 0.00 | 42 | 1003.5 |
| 20260504224516 | 69 | 290 | 3.0 | 10.0 | 0.00 | 0.00 | 0.00 | 44 | 1003.8 |
| 20260504223014 | 70 | 240 | 2.0 | 12.0 | 0.00 | 0.00 | 0.00 | 42 | 1003.7 |
| 20260504221509 | 70 | 239 | 5.0 | 15.0 | 0.00 | 0.00 | 0.00 | 42 | 1003.6 |
| 20260504220008 | 70 | 253 | 5.0 | 13.0 | 0.00 | 0.00 | 0.00 | 42 | 1003.7 |
| 20260504214506 | 70 | 254 | 4.0 | 17.0 | 0.00 | 0.00 | 0.00 | 42 | 1003.9 |
| 20260504213013 | 70 | 214 | 5.0 | 14.0 | 0.00 | 0.00 | 0.00 | 41 | 1003.8 |
| 20260504211511 | 70 | 250 | 4.0 | 10.0 | 0.00 | 0.00 | 0.00 | 42 | 1003.8 |
| 20260504210004 | 69 | 271 | 5.0 | 11.0 | 0.00 | 0.00 | 0.00 | 42 | 1003.9 |
| 20260504204503 | 70 | 263 | 5.0 | 12.0 | 0.00 | 0.00 | 0.00 | 42 | 1003.9 |
| 20260504203108 | 70 | 252 | 6.0 | 11.0 | 0.00 | 0.00 | 0.00 | 43 | 1004.3 |
| 20260504201612 | 68 | 287 | 6.0 | 13.0 | 0.00 | 0.00 | 0.00 | 47 | 1004.5 |
| 20260504200056 | 69 | 256 | 3.0 | 10.0 | 0.00 | 0.00 | 0.00 | 46 | 1004.5 |
| 20260504194556 | 71 | 310 | 4.0 | 10.0 | 0.00 | 0.00 | 0.00 | 44 | 1004.7 |
| 20260504193100 | 71 | 309 | 2.0 | 8.0 | 0.00 | 0.00 | 0.00 | 45 | 1004.9 |
| 20260504191607 | 70 | 313 | 3.0 | 10.0 | 0.00 | 0.00 | 0.00 | 47 | 1005.2 |
| 20260504184550 | 70 | 270 | 3.0 | 10.0 | 0.00 | 0.00 | 0.00 | 47 | 1005.8 |
| 20260504183043 | 69 | 294 | 3.0 | 9.0 | 0.00 | 0.00 | 0.00 | 48 | 1005.9 |
| 20260504181541 | 69 | 298 | 3.0 | 11.0 | 0.00 | 0.00 | 0.00 | 48 | 1006.1 |
| 20260504180038 | 67 | 240 | 3.0 | 11.0 | 0.00 | 0.00 | 0.00 | 50 | 1006.4 |
| 20260504174537 | 65 | 263 | 5.0 | 11.0 | 0.00 | 0.00 | 0.00 | 50 | 1006.7 |
| 20260504173034 | 66 | 270 | 3.0 | 11.0 | 0.00 | 0.00 | 0.00 | 51 | 1006.8 |
| 20260504171536 | 64 | 252 | 5.0 | 11.0 | 0.00 | 0.00 | 0.00 | 52 | 1006.9 |